Bryce Canyon, UT

10:32 AM MST on December 05, 2019 (GMT -0700)
Bryce Canyon

Weather History for KBCE - October, 2019

Change the Weather History Date:

Thursday, October 10, 2019

  Actual Average Record
Temperature  
Mean Temperature 30 °F -  
Max Temperature 42 °F 61 °F 76 °F (1996)
Min Temperature 18 °F 30 °F 10 °F (2017)
Degree Days  
Heating Degree Days 35    
Moisture  
Dew Point 3 °F    
Average Humidity 33    
Maximum Humidity 52    
Minimum Humidity 17    
Precipitation  
Precipitation 0.00 in - - ()
Sea Level Pressure  
Sea Level Pressure 30.08 in    
Wind  
Wind Speed 13 mph (NNW)    
Max Wind Speed 21 mph    
Max Gust Speed 25 mph    
Visibility 10 miles    
Events      
Averages and records for this station are not official NWS values.
T = Trace of Precipitation, MM = Missing Value Source: NWS Daily Summary

Daily Weather History Graph

Daily Weather History Graph

Search for Another Location

Airport or City:

Astronomy

Oct. 10, 2019 Rise Set
Actual Time 7:32 AM MDT 6:58 PM MDT
Civil Twilight 7:05 AM MDT 7:24 PM MDT
Nautical Twilight 6:35 AM MDT 7:55 PM MDT
Astronomical Twilight 6:05 AM MDT 8:25 PM MDT
Moon 5:57 PM MDT (10/10) 4:24 AM MDT (10/10)
Length of Visible Light 12h 18m
Length of Day
11h 26m
Waxing Gibbous, 91% of the Moon is Illuminated
Oct 10
Waxing Gibbous
Oct 13
Full
Oct 21
Last Quarter
Oct 27
New
Nov 4
First Quarter

Hourly Weather History & Observations

Time (MDT) Temp. Windchill Dew Point Humidity Pressure Visibility Wind Dir Wind Speed Gust Speed Precip Events Conditions
12:53 AM 28.9 °F 18.6 °F 5.0 °F 36% 29.78 in 10.0 mi NNW 12.7 mph - N/A   Clear
1:53 AM 27.0 °F 14.7 °F 3.0 °F 36% 29.78 in 10.0 mi NW 16.1 mph - N/A   Clear
2:53 AM 26.1 °F 15.0 °F 1.9 °F 35% 29.81 in 10.0 mi NW 12.7 mph - N/A   Clear
5:53 AM 21.0 °F 11.4 °F 1.9 °F 44% 29.90 in 10.0 mi NW 8.1 mph - N/A   Clear
6:53 AM 19.9 °F 9.3 °F 1.0 °F 44% 29.96 in 10.0 mi NNW 9.2 mph - N/A   Clear
7:53 AM 18.0 °F 6.1 °F 3.0 °F 52% 30.03 in 10.0 mi NW 10.4 mph - N/A   Clear
8:53 AM 25.0 °F 15.5 °F 1.9 °F 37% 30.04 in 10.0 mi NW 9.2 mph - N/A   Clear
9:53 AM 28.9 °F 15.8 °F 5.0 °F 36% 30.09 in 10.0 mi NNE 20.7 mph 25.3 mph N/A   Clear
10:53 AM 32.0 °F 21.6 °F 6.1 °F 34% 30.09 in 10.0 mi NE 15.0 mph 21.9 mph N/A   Clear
11:53 AM 37.0 °F 28.9 °F 3.9 °F 25% 30.08 in 10.0 mi North 12.7 mph - 0.00 in   Clear
12:53 PM 39.0 °F 30.3 °F 3.0 °F 22% 30.08 in 9.0 mi NE 16.1 mph 24.2 mph 0.00 in   Unknown
1:53 PM 39.9 °F 31.4 °F 1.0 °F 20% 30.08 in 10.0 mi NE 16.1 mph 23.0 mph 0.00 in   Clear
2:53 PM 41.0 °F 33.5 °F 1.9 °F 20% 30.07 in 10.0 mi NE 13.8 mph 20.7 mph N/A   Clear
3:53 PM 41.0 °F 33.5 °F 1.0 °F 19% 30.09 in 10.0 mi NNE 13.8 mph 23.0 mph N/A   Clear
4:53 PM 42.1 °F 36.1 °F -0.9 °F 17% 30.11 in 10.0 mi NNE 10.4 mph 18.4 mph N/A   Clear
5:53 PM 39.0 °F 30.3 °F 7.0 °F 27% 30.14 in 10.0 mi WNW 16.1 mph - N/A   Clear
6:53 PM 34.0 °F 25.0 °F 6.1 °F 31% 30.20 in 10.0 mi WNW 12.7 mph - N/A   Clear
7:53 PM 28.9 °F 21.1 °F 5.0 °F 36% 30.27 in 10.0 mi WNW 8.1 mph - N/A   Clear
8:53 PM 26.1 °F 16.8 °F 3.9 °F 39% 30.26 in 10.0 mi WNW 9.2 mph - N/A   Clear
9:53 PM 23.0 °F 13.1 °F 3.0 °F 42% 30.28 in 10.0 mi NW 9.2 mph - N/A   Clear
10:53 PM 25.0 °F 13.6 °F 1.9 °F 37% 30.27 in 10.0 mi North 12.7 mph - N/A   Clear
11:53 PM 25.0 °F 11.3 °F 1.9 °F 37% 30.25 in 10.0 mi NNE 18.4 mph - N/A   Clear